Weather History for Winchester, TN

Change the Weather History Date:

Thursday, February 20, 2014

  Actual Average (KTHA) Record (KTHA)
Temperature  
Mean Temperature 64 °F -  
Max Temperature 71 °F 54 °F 68 °F (2014)
Min Temperature 57 °F 31 °F 21 °F (2013)
Degree Days  
Heating Degree Days 1    
Growing Degree Days 14 (Base 50)    
Moisture  
Dew Point 57 °F    
Average Humidity 78    
Maximum Humidity 94    
Minimum Humidity 60    
Precipitation  
Precipitation 0.00 in - - ()
Sea Level Pressure  
Sea Level Pressure 29.90 in    
Wind  
Wind Speed 12 mph (South)    
Max Wind Speed 25 mph    
Max Gust Speed 41 mph    
Visibility 10 miles    
Events      
Averages and records for this station are not official NWS values.
T = Trace of Precipitation, MM = Missing Value Source: NWS Daily Summary

Daily Weather History Graph

Daily Weather History Graph

Search for Another Location

Airport:

Trip Planner

Search our weather history database for the weather conditions in past years. The results will help you decide how hot, cold, wet, or windy it might be!

Date:

Astronomy

Feb. 20, 2014 Rise Set
Actual Time 7:24 AM EST 6:31 PM EST
Civil Twilight 6:59 AM EST 6:57 PM EST
Nautical Twilight 6:29 AM EST 7:26 PM EST
Astronomical Twilight 6:00 AM EST 7:56 PM EST
Moon No Moon Rise 10:20 AM EST (2/20)
Length of Visible Light 11h 58m
Length of Day
11h 06m
Waning Gibbous, 71% of the Moon is Illuminated
Feb 20
Waning Gibbous
Feb 22
Last Quarter
Mar 1
New
Mar 8
First Quarter
Mar 16
Full

Hourly Weather History & Observations

Time (EST) Temp. Dew Point Humidity Pressure Visibility Wind Dir Wind Speed Gust Speed Precip Events Conditions
12:15 AM 59.0 °F 55.4 °F 88% 29.98 in 10.0 mi SSE 9.2 mph - N/A   Clear
12:35 AM 59.0 °F 55.4 °F 88% 29.97 in 10.0 mi SSE 11.5 mph - N/A   Clear
12:55 AM 60.8 °F 55.4 °F 82% 29.97 in 10.0 mi SSE 11.5 mph - N/A   Clear
1:55 AM 60.8 °F 55.4 °F 82% 29.98 in 10.0 mi South 11.5 mph - N/A   Scattered Clouds
2:15 AM 60.8 °F 55.4 °F 82% 29.98 in 10.0 mi South 9.2 mph - N/A   Scattered Clouds
2:35 AM 60.8 °F 55.4 °F 82% 29.97 in 10.0 mi South 10.4 mph - N/A   Partly Cloudy
2:55 AM 60.8 °F 55.4 °F 82% 29.96 in 10.0 mi South 15.0 mph - N/A   Clear
3:15 AM 62.6 °F 55.4 °F 77% 29.96 in 10.0 mi South 13.8 mph - N/A   Clear
3:35 AM 60.8 °F 55.4 °F 82% 29.96 in 10.0 mi South 12.7 mph - N/A   Clear
3:55 AM 60.8 °F 55.4 °F 82% 29.96 in 10.0 mi South 12.7 mph - N/A   Clear
4:15 AM 60.8 °F 55.4 °F 82% 29.95 in 10.0 mi South 9.2 mph - N/A   Partly Cloudy
4:35 AM 60.8 °F 55.4 °F 82% 29.95 in 10.0 mi South 12.7 mph - N/A   Scattered Clouds
4:55 AM 62.6 °F 57.2 °F 82% 29.95 in 10.0 mi South 6.9 mph - N/A   Mostly Cloudy
5:15 AM 60.8 °F 57.2 °F 88% 29.95 in 10.0 mi South 13.8 mph - N/A   Mostly Cloudy
5:35 AM 62.6 °F 57.2 °F 82% 29.95 in 10.0 mi South 9.2 mph - N/A   Mostly Cloudy
5:55 AM 62.6 °F 57.2 °F 82% 29.95 in 10.0 mi SSW 9.2 mph - N/A   Overcast
6:15 AM 62.6 °F 57.2 °F 82% 29.96 in 10.0 mi South 8.1 mph - N/A   Overcast
6:35 AM 62.6 °F 57.2 °F 82% 29.96 in 10.0 mi South 8.1 mph - N/A   Overcast
6:55 AM 62.6 °F 57.2 °F 82% 29.96 in 10.0 mi South 9.2 mph - N/A   Overcast
7:15 AM 62.6 °F 57.2 °F 82% 29.96 in 10.0 mi South 5.8 mph - N/A   Overcast
7:35 AM 62.6 °F 57.2 °F 82% 29.96 in 10.0 mi South 9.2 mph - N/A   Overcast
7:55 AM 62.6 °F 57.2 °F 82% 29.97 in 10.0 mi South 9.2 mph - N/A   Overcast
8:15 AM 62.6 °F 57.2 °F 82% 29.97 in 10.0 mi South 6.9 mph - N/A   Overcast
8:35 AM 62.6 °F 57.2 °F 82% 29.98 in 10.0 mi South 8.1 mph - N/A   Overcast
8:55 AM 64.4 °F 57.2 °F 77% 29.98 in 10.0 mi South 11.5 mph - N/A   Overcast
9:15 AM 64.4 °F 57.2 °F 77% 29.98 in 10.0 mi South 12.7 mph - N/A   Overcast
9:35 AM 64.4 °F 57.2 °F 77% 29.99 in 10.0 mi South 9.2 mph - N/A   Overcast
9:55 AM 64.4 °F 57.2 °F 77% 29.99 in 10.0 mi SSW 8.1 mph - N/A   Overcast
10:15 AM 66.2 °F 55.4 °F 68% 29.99 in 10.0 mi SSW 11.5 mph - N/A   Mostly Cloudy
10:35 AM 66.2 °F 57.2 °F 73% 29.98 in 10.0 mi South 12.7 mph - N/A   Mostly Cloudy
10:55 AM 66.2 °F 55.4 °F 68% 29.98 in 10.0 mi SSW 11.5 mph - N/A   Scattered Clouds
11:15 AM 68.0 °F 57.2 °F 68% 29.98 in 10.0 mi South 11.5 mph - N/A   Mostly Cloudy
11:35 AM 66.2 °F 57.2 °F 73% 29.98 in 10.0 mi South 11.5 mph 21.9 mph N/A   Overcast
11:55 AM 69.8 °F 57.2 °F 64% 29.97 in 10.0 mi SSW 11.5 mph - N/A   Overcast
12:15 PM 69.8 °F 57.2 °F 64% 29.96 in 10.0 mi South 12.7 mph - N/A   Mostly Cloudy
12:35 PM 68.0 °F 57.2 °F 68% 29.95 in 10.0 mi South 13.8 mph - N/A   Mostly Cloudy
12:55 PM 69.8 °F 57.2 °F 64% 29.94 in 10.0 mi South 12.7 mph - N/A   Mostly Cloudy
1:15 PM 68.0 °F 57.2 °F 68% 29.93 in 10.0 mi South 12.7 mph - N/A   Overcast
1:35 PM 66.2 °F 57.2 °F 73% 29.92 in 10.0 mi South 12.7 mph - N/A   Overcast
1:55 PM 64.4 °F 60.8 °F 88% 29.91 in 6.0 mi South 11.5 mph - N/A   Overcast
2:15 PM 62.6 °F 60.8 °F 94% 29.91 in 3.0 mi South 9.2 mph - N/A   Overcast
2:35 PM 64.4 °F 60.8 °F 88% 29.90 in 10.0 mi South 16.1 mph - N/A   Overcast
2:55 PM 66.2 °F 60.8 °F 83% 29.91 in 10.0 mi South 10.4 mph - N/A   Overcast
3:15 PM 69.8 °F 60.8 °F 73% 29.90 in 10.0 mi SSW 19.6 mph - N/A   Overcast
3:35 PM 69.8 °F 60.8 °F 73% 29.89 in 10.0 mi SSW 16.1 mph - N/A   Scattered Clouds
3:55 PM 69.8 °F 59.0 °F 68% 29.89 in 10.0 mi SSW 13.8 mph - N/A   Partly Cloudy
4:15 PM 71.6 °F 59.0 °F 64% 29.88 in 10.0 mi South 12.7 mph - N/A   Partly Cloudy
4:35 PM 71.6 °F 57.2 °F 60% 29.86 in 10.0 mi South 16.1 mph - N/A   Partly Cloudy
4:55 PM 71.6 °F 57.2 °F 60% 29.85 in 10.0 mi SSE 20.7 mph - N/A   Partly Cloudy
5:15 PM 69.8 °F 57.2 °F 64% 29.84 in 10.0 mi South 21.9 mph 31.1 mph N/A   Partly Cloudy
5:35 PM 69.8 °F 57.2 °F 64% 29.84 in 10.0 mi South 17.3 mph - N/A   Partly Cloudy
5:55 PM 68.0 °F 57.2 °F 68% 29.84 in 10.0 mi South 15.0 mph - N/A   Scattered Clouds
6:15 PM 66.2 °F 57.2 °F 73% 29.83 in 10.0 mi South 18.4 mph 27.6 mph N/A   Partly Cloudy
6:35 PM 66.2 °F 57.2 °F 73% 29.82 in 10.0 mi South 17.3 mph - N/A   Clear
6:55 PM 66.2 °F 57.2 °F 73% 29.83 in 10.0 mi South 18.4 mph - N/A   Clear
7:15 PM 66.2 °F 57.2 °F 73% 29.83 in 10.0 mi South 16.1 mph 28.8 mph N/A   Clear
7:35 PM 64.4 °F 57.2 °F 77% 29.82 in 10.0 mi South 21.9 mph - N/A   Clear
7:55 PM 64.4 °F 57.2 °F 77% 29.81 in 10.0 mi South 20.7 mph - N/A   Clear
8:15 PM 64.4 °F 59.0 °F 83% 29.80 in 10.0 mi South 19.6 mph - N/A   Clear
8:35 PM 64.4 °F 59.0 °F 83% 29.79 in 10.0 mi South 20.7 mph - N/A   Clear
8:55 PM 64.4 °F 59.0 °F 83% 29.79 in 10.0 mi South 21.9 mph 35.7 mph N/A   Clear
9:15 PM 64.4 °F 59.0 °F 83% 29.78 in 10.0 mi South 23.0 mph - N/A   Clear
9:35 PM 66.2 °F 59.0 °F 78% 29.76 in 10.0 mi South 25.3 mph - N/A   Partly Cloudy
9:55 PM 66.2 °F 59.0 °F 78% 29.75 in 10.0 mi South 25.3 mph 32.2 mph N/A   Partly Cloudy
10:15 PM 66.2 °F 59.0 °F 78% 29.74 in 10.0 mi South 21.9 mph - N/A   Mostly Cloudy
10:35 PM 66.2 °F 60.8 °F 83% 29.74 in 10.0 mi South 18.4 mph - N/A   Overcast
10:55 PM 66.2 °F 60.8 °F 83% 29.74 in 10.0 mi South 18.4 mph 41.4 mph N/A   Overcast
11:15 PM 64.4 °F 60.8 °F 88% 29.73 in 4.0 mi South 19.6 mph - N/A   Mostly Cloudy
11:35 PM 57.2 °F 55.4 °F 94% 29.80 in - SW 15.0 mph 24.2 mph N/A   Overcast
11:55 PM 57.2 °F 55.4 °F 94% 29.81 in 2.5 mi SW 11.5 mph - N/A   Overcast